Location: Asheville, NC
(35.6000°N, 82.5500°W)
Time: 01:52:38
(UTC-05:00)

Vanguard 1 Rocket - Pass Details

Date: 16 February 2018
Orbit: 655 x 4222 km, 34.3° (Epoch: 20 February)

Event Time Altitude Azimuth Distance (km) Brightness Sun altitude
Rises 23:10:56 0° 229° (SW) 6,620 11.8 -58.4°
Reaches altitude 10° 23:14:44 10° 226° (SW) 5,977 11.5 -58.9°
Enters shadow 23:18:49 22° 222° (SW) 5,374 11.1 -59.5°
Maximum altitude 23:35:40 64° 150° (SSE) 4,370 - -61.8°
Exits shadow 23:57:36 17° 78° (ENE) 6,534 11.5 -64.2°
Drops below altitude 10° 00:00:54 10° 76° (ENE) 7,018 11.8 -64.4°
Sets 00:05:48 0° 74° (ENE) 7,764 12.1 -64.9°
